Regional Weather Roundup
Issued by NWS Kansas City/Pleasant Hill, MO

Home | Current Version | Previous Version | Graphics & Text | Print | Product List | Glossary Off
Versions: 1 2 3 4 5 6 7 8 9 10 11 12 13 14 15 16 17 18 19 20 21 22 23 24 25 26 27 28 29 30 31 32 33 34 35 36 37 38 39 40 41 42 43 44 45 46 47 48 49 50

156
ASUS43 KEAX 182110
RWREAX

WEATHER ROUNDUP FOR EASTERN KANSAS AND NORTHWEST MISSOURI
NATIONAL WEATHER SERVICE KANSAS CITY/PLEASANT HILL MO
300 PM CST WED JAN 18 2017

KSZ040-057-103>105-MOZ028-029-037-043-182200-
...KANSAS CITY METROPOLITAN AREA...

CITY           SKY/WX    TMP DP  RH WIND       PRES   REMARKS
K.C. INTL      MOSUNNY   47  36  65 S6        30.02F
K.C. DOWNTOWN  SUNNY     49  38  65 SE5       30.03F
LEES SUMMIT    SUNNY     47  39  74 S8        30.05F
OLATHE - IXD   SUNNY     48  38  68 SE12      30.04F
OLATHE - OJC   SUNNY     48  42  80 S9        30.03F
LAWRENCE       SUNNY     49  38  65 SE10      30.03F

$$

MOZ001>008-011>017-020>025-030>033-038>040-044>046-053-054-182200-
...NORTHERN AND CENTRAL MISSOURI...

CITY           SKY/WX    TMP DP  RH WIND       PRES   REMARKS
ST. JOSEPH     SUNNY     48  40  73 S8        30.01F
MOSBY          PTCLDY    43  41  93 SE6       30.05F
WARRENSBURG    SUNNY     46  37  71 SE5       30.05F
WHITEMAN AFB   MOSUNNY   49  42  76 VRB6      30.05F
CLINTON        CLOUDY    48  37  66 SE3       30.06F
SEDALIA        MOSUNNY   50  39  66 SE5       30.06F
WARSAW         NOT AVBL
CHILLICOTHE      N/A     40  38  93 S7        30.08F
KIRKSVILLE     CLOUDY    39  36  89 S9        30.07F WCI  33

$$

MOZ041-047>049-056>058-063>065-088>090-097-182200-
...EASTERN AND SOUTHERN MISSOURI...

CITY           SKY/WX    TMP DP  RH WIND       PRES   REMARKS
ST. LOUIS INTL CLOUDY    48  32  53 S9        30.11F
SPIRIT OF STL  CLOUDY    48  34  58 S6        30.11F
COLUMBIA       SUNNY     49  36  61 VRB5      30.08F
JEFFERSON CITY SUNNY     49  35  58 SE7       30.09F
ROLLA          SUNNY     50  34  54 CALM      30.06F
OSAGE BEACH    SUNNY     53  36  52 CALM      30.07F
SPRINGFIELD    CLOUDY    50  37  61 SE9       30.03F
BRANSON        CLOUDY    41  41 100 SE7       30.08F
JOPLIN         CLOUDY    53  40  61 SE6       30.04F
WEST PLAINS    CLOUDY    42  38  85 E3        30.10F

$$

IAZ060-094-KSZ022-034>040-054-083-096-NEZ052-066-093-182200-
...KANSAS...SOUTHEAST NEBRASKA AND IOWA...

CITY           SKY/WX    TMP DP  RH WIND       PRES   REMARKS
TOPEKA         SUNNY     55  34  45 S9        30.00F
MANHATTAN      SUNNY     59  31  34 S9        29.95F
EMPORIA        MOSUNNY   53  32  44 S15       29.99F
CHANUTE        CLOUDY    48  40  73 SE7       30.04F
WICHITA        MOSUNNY   54  41  61 S16       29.97F
OMAHA          MOSUNNY   49  39  68 S14       29.91F
LINCOLN        SUNNY     51  40  65 S16       29.92F
FALLS CITY     SUNNY     52  38  58 S10       29.98F
LAMONI         MOSUNNY   38  35  89 S12       30.01F WCI  30
DES MOINES     MOSUNNY   47  36  65 S15       29.97F

$$





USA.gov is the U.S. government's official web portal to all federal, state and local government web resources and services.